GW3062 Weather Reports


time (UTC)temp
F
wind
direction
speed
knots
gust
knots
rain 1hr
in
rain 24hr
in
rain mn
in
humidity
%
barometer
mb
20260504193517 80 70 0.9 4.3 0.00 0.00 0.00 35 1011.8
20260504193016 80 70 0.9 4.3 0.00 0.00 0.00 34 1011.9
20260504192515 80 47 0.9 2.6 0.00 0.00 0.00 33 1012.0
20260504192027 79 75 1.7 3.5 0.00 0.00 0.00 34 1012.2
20260504191516 80 53 0.9 3.5 0.00 0.00 0.00 34 1012.2
20260504191016 79 46 0.9 2.6 0.00 0.00 0.00 35 1012.2
20260504190527 79 88 1.7 2.6 0.00 0.00 0.00 33 1012.3
20260504190016 80 65 0.9 4.3 0.00 0.00 0.00 34 1012.4
20260504185516 80 73 0.9 4.3 0.00 0.00 0.00 34 1012.3
20260504185016 80 60 0.0 5.2 0.00 0.00 0.00 34 1012.4
20260504184516 81 29 0.9 2.6 0.00 0.00 0.00 35 1012.5
20260504183516 79 39 0.0 3.5 0.00 0.00 0.00 37 1012.6
20260504183016 79 51 0.9 3.5 0.00 0.00 0.00 34 1012.6
20260504182016 79 68 1.7 3.5 0.00 0.00 0.00 34 1012.6
20260504181516 79 82 0.0 3.5 0.00 0.00 0.00 36 1012.7
20260504181016 78 65 0.9 4.3 0.00 0.00 0.00 35 1012.7
20260504180516 78 84 0.9 5.2 0.00 0.00 0.00 35 1012.7
20260504180016 78 53 1.7 5.2 0.00 0.00 0.00 37 1012.7
20260504175516 78 36 1.7 4.3 0.00 0.00 0.00 36 1012.8
20260504175027 78 72 0.9 3.5 0.00 0.00 0.00 36 1012.8
20260504174516 78 83 0.9 3.5 0.00 0.00 0.00 36 1013.0
20260504174016 78 51 0.9 3.5 0.00 0.00 0.00 38 1013.0
20260504173516 78 69 1.7 3.5 0.00 0.00 0.00 35 1013.1
20260504173027 78 79 0.9 7.8 0.00 0.00 0.00 36 1013.0
20260504172515 79 68 1.7 7.8 0.00 0.00 0.00 36 1012.9
20260504172028 79 68 0.0 1.7 0.00 0.00 0.00 35 1013.0
20260504171516 79 84 0.9 1.7 0.00 0.00 0.00 34 1013.3
20260504171016 79 75 0.0 2.6 0.00 0.00 0.00 37 1013.4
20260504170516 78 79 0.9 2.6 0.00 0.00 0.00 36 1013.4
20260504151016 72 71 0.0 2.6 0.00 0.00 0.00 43 1014.7
20260504150516 71 78 0.9 2.6 0.00 0.00 0.00 42 1014.9
20260504141016 66 71 0.9 1.7 0.00 0.00 0.00 55 1014.6
20260504140517 66 75 0.0 1.7 0.00 0.00 0.00 57 1014.7
20260504130517 58 64 0.0 0.9 0.00 0.00 0.00 71 1014.8
20260504110516 38 66 0.0 0.0 0.00 0.00 0.00 97 1014.5
20260504100517 38 63 0.0 0.0 0.00 0.00 0.00 96 1014.6
20260504081517 39 63 0.0 0.0 0.00 0.00 0.00 95 1014.4
20260504081017 39 63 0.0 0.0 0.00 0.00 0.00 95 1014.4
20260504080517 39 63 0.0 0.0 0.00 0.00 0.00 94 1014.4
20260504050528 42 63 0.0 0.0 0.00 0.00 0.00 90 1014.6
20260504050017 42 63 0.0 0.0 0.00 0.00 0.00 90 1014.7
20260504045517 42 63 0.0 0.0 0.00 0.00 0.00 90 1014.6
20260504045017 42 63 0.0 0.0 0.00 0.00 0.00 90 1014.5
20260504044528 42 63 0.0 0.0 0.00 0.00 0.00 90 1014.6
20260504044018 43 63 0.0 0.0 0.00 0.00 0.00 91 1014.5
20260504043518 42 63 0.0 0.0 0.00 0.00 0.00 91 1014.5
20260504043017 42 63 0.0 0.0 0.00 0.00 0.00 89 1014.4
20260504042528 42 63 0.0 0.0 0.00 0.00 0.00 89 1014.3
20260504042018 43 63 0.0 0.0 0.00 0.00 0.00 89 1014.3
20260504041517 43 63 0.0 0.0 0.00 0.00 0.00 89 1014.4
20260504041017 43 63 0.0 0.0 0.00 0.00 0.00 89 1014.4
20260504040517 43 63 0.0 0.0 0.00 0.00 0.00 89 1014.5
20260504040017 43 63 0.0 0.0 0.00 0.00 0.00 88 1014.5
20260504035517 43 63 0.0 0.0 0.00 0.00 0.00 88 1014.5
20260504035017 43 63 0.0 0.0 0.00 0.00 0.00 88 1014.4
20260504034517 43 63 0.0 0.0 0.00 0.00 0.00 88 1014.4
20260504034017 43 63 0.0 0.0 0.00 0.00 0.00 87 1014.5
20260504033517 43 63 0.0 0.0 0.00 0.00 0.00 86 1014.5
20260504033017 44 63 0.0 0.0 0.00 0.00 0.00 86 1014.6
20260504032518 44 63 0.0 0.0 0.00 0.00 0.00 86 1014.6
20260504032028 44 63 0.0 0.0 0.00 0.00 0.00 85 1014.6
20260504031517 44 63 0.0 0.0 0.00 0.00 0.00 85 1014.5
20260504031028 44 63 0.0 0.0 0.00 0.00 0.00 85 1014.5
20260504030517 45 63 0.0 0.0 0.00 0.00 0.00 84 1014.6
20260504030017 45 63 0.0 0.0 0.00 0.00 0.00 84 1014.6
20260504025518 45 63 0.0 0.0 0.00 0.00 0.00 84 1014.6
20260504025017 45 63 0.0 0.0 0.00 0.00 0.00 83 1014.7
20260504024518 45 63 0.0 0.0 0.00 0.00 0.00 82 1014.5
20260504024017 45 63 0.0 0.0 0.00 0.00 0.00 82 1014.5
20260504023517 45 63 0.0 0.0 0.00 0.00 0.00 81 1014.5
20260504023017 46 63 0.0 0.0 0.00 0.00 0.00 80 1014.5
20260504022518 46 63 0.0 0.0 0.00 0.00 0.00 79 1014.4
20260504022017 46 63 0.0 0.0 0.00 0.00 0.00 79 1014.4
20260504021517 46 63 0.0 0.0 0.00 0.00 0.00 79 1014.3
20260504021017 47 63 0.0 0.0 0.00 0.00 0.00 77 1014.3
20260504020517 47 63 0.0 0.0 0.00 0.00 0.00 77 1014.3
20260504020018 47 63 0.0 0.0 0.00 0.00 0.00 76 1014.2
20260504015528 47 63 0.0 0.0 0.00 0.00 0.00 76 1014.2
20260504015018 47 63 0.0 0.0 0.00 0.00 0.00 75 1014.1
20260504014028 48 63 0.0 0.0 0.00 0.00 0.00 71 1013.9
20260504013018 49 63 0.0 0.0 0.00 0.00 0.00 71 1013.8
20260504012018 50 63 0.0 0.0 0.00 0.00 0.00 70 1013.8
20260504011017 50 63 0.0 0.0 0.00 0.00 0.00 67 1013.6
20260504010018 51 63 0.0 0.0 0.00 0.00 0.00 65 1013.6
20260504005018 52 63 0.0 0.0 0.00 0.00 0.00 63 1013.6
20260504004518 52 63 0.0 0.0 0.00 0.00 0.00 61 1013.5
20260504004017 53 63 0.0 0.0 0.00 0.00 0.00 60 1013.4
20260504003518 53 63 0.0 0.0 0.00 0.00 0.00 59 1013.4
20260504003018 53 63 0.0 0.0 0.00 0.00 0.00 59 1013.3
20260504002518 54 63 0.0 0.0 0.00 0.00 0.00 58 1013.2
20260504002018 55 63 0.0 0.0 0.00 0.00 0.00 57 1013.2
20260504001018 56 63 0.0 0.0 0.00 0.00 0.00 56 1013.1
20260504000518 56 63 0.0 0.0 0.00 0.00 0.00 55 1013.1
20260504000019 57 63 0.0 0.0 0.00 0.00 0.00 54 1013.1
20260503235518 57 63 0.0 0.0 0.00 0.00 0.00 53 1013.1
20260503233519 59 63 0.0 0.9 0.00 0.00 0.00 48 1013.1
20260503233018 60 63 0.0 0.0 0.00 0.00 0.00 48 1013.2
20260503232518 60 63 0.0 0.9 0.00 0.00 0.00 45 1013.1
20260503232029 61 63 0.0 1.7 0.00 0.00 0.00 42 1013.2
20260503231518 61 64 0.0 0.0 0.00 0.00 0.00 40 1013.1
20260503231018 61 64 0.0 0.0 0.00 0.00 0.00 39 1013.1
20260503230518 62 64 0.0 0.9 0.00 0.00 0.00 38 1013.0
20260503230018 62 64 0.0 0.9 0.00 0.00 0.00 38 1013.1
20260503225518 62 64 0.0 0.0 0.00 0.00 0.00 37 1013.1
20260503224518 63 64 0.0 0.9 0.00 0.00 0.00 35 1013.2
20260503223518 63 60 0.0 3.5 0.00 0.00 0.00 36 1013.3
20260503223018 63 49 0.9 2.6 0.00 0.00 0.00 35 1013.4
20260503222518 63 57 0.0 1.7 0.00 0.00 0.00 36 1013.4
20260503222018 63 56 0.0 4.3 0.00 0.00 0.00 34 1013.4
20260503221519 64 43 1.7 4.3 0.00 0.00 0.00 34 1013.4
20260503221019 64 74 1.7 2.6 0.00 0.00 0.00 35 1013.4
20260503220518 64 49 0.9 2.6 0.00 0.00 0.00 35 1013.5
20260503220018 64 62 0.0 4.3 0.00 0.00 0.00 35 1013.6
20260503215518 64 25 0.9 4.3 0.00 0.00 0.00 34 1013.6
20260503215018 64 77 0.9 2.6 0.00 0.00 0.00 34 1013.7
20260503214518 64 57 0.0 4.3 0.00 0.00 0.00 34 1013.8
20260503214029 64 68 2.6 5.2 0.00 0.00 0.00 34 1013.9
20260503213521 65 49 0.9 2.6 0.00 0.00 0.00 35 1013.9
20260503213018 65 57 0.0 2.6 0.00 0.00 0.00 33 1013.9
20260503212529 65 56 0.0 2.6 0.00 0.00 0.00 34 1014.0
20260503212018 65 120 0.9 2.6 0.00 0.00 0.00 32 1014.0
20260503211518 65 39 1.7 7.0 0.00 0.00 0.00 33 1014.0
20260503211018 65 53 2.6 7.0 0.00 0.00 0.00 31 1014.0
20260503210518 65 56 0.0 1.7 0.00 0.00 0.00 33 1014.1
20260503210018 65 59 0.0 1.7 0.00 0.00 0.00 32 1014.1
20260503205518 65 78 0.0 3.5 0.00 0.00 0.00 31 1014.1
20260503205018 64 57 0.9 3.5 0.00 0.00 0.00 32 1014.2
20260503204518 64 70 0.9 2.6 0.00 0.00 0.00 34 1014.3
20260503204029 64 74 0.0 3.5 0.00 0.00 0.00 33 1014.2
20260503203529 64 53 0.9 4.3 0.00 0.00 0.00 33 1014.4
20260503203018 64 50 2.6 4.3 0.00 0.00 0.00 31 1014.4
20260503202518 64 60 0.9 3.5 0.00 0.00 0.00 33 1014.5
20260503200518 66 46 0.9 2.6 0.00 0.00 0.00 32 1014.7
20260503200018 66 110 0.9 4.3 0.00 0.00 0.00 28 1014.8
20260503195518 66 50 2.6 4.3 0.00 0.00 0.00 29 1015.0
20260503195018 67 77 0.9 2.6 0.00 0.00 0.00 29 1014.9
20260503194518 67 75 1.7 2.6 0.00 0.00 0.00 28 1015.0
20260503194018 67 103 0.9 2.6 0.00 0.00 0.00 29 1015.0